Flag for Germany Weather past 2 weeks in Bietigheim-Bissingen, Baden-Württemberg, Germany

Now
62 °F

Overcast.


Feels Like: 62 °F
Forecast: 42 / 73 °F
Wind: 6 mph from Southwest

Location: Stuttgart-Echterdingen

Current Time: May 30, 2015 at 6:49:20 PM

Latest Report: May 30, 2015 at 6:00 PM


Visibility: 41 mi

Pressure: 30.01 "Hg

Humidity: 55%

Dew point: 45 °F

Location of Bietigheim-BissingenLocation

Historic Weather in Bietigheim-Bissingen — Graph

°F

Bietigheim-Bissingen temperature yesterday

Maximum temperature yesterday: 71 °F (at 3:00 PM)
Minimum temperature yesterday: 53 °F (at 6:00 AM)
Average temperature yesterday: 61 °F

Past Weeks' High & Low Weather Summary

 TemperatureHumidityPressure
High73 °F (May 18, 6:00 PM)98% (May 16, 7:00 AM)30.36 "Hg (May 16, 7:00 AM)
Low37 °F (May 22, 6:00 AM)27% (May 22, 4:00 PM)29.71 "Hg (May 18, 7:00 PM)
Average56 °F67%30.06 "Hg
* Reported May 15 5:00 PM — May 30 5:00 PM, Bietigheim-Bissingen, Weather by CustomWeather, © 2015

Note: Actual official high and low records may vary slightly from our data, if they occured in-between our weather recording intervals... More about our weather records

Advertising

Bietigheim-Bissingen weather history for previous 24 hours

 ConditionsComfort  
Time TempWeatherWind HumidityBarometerVisibility
5:00 PM
Sat, May 30
60 °FOvercast.5 mph58%30.02 "Hg40 mi
4:00 PM59 °FOvercast.6 mph61%30.03 "Hg40 mi
3:00 PM58 °FOvercast.8 mph64%30.03 "Hg34 mi
2:00 PM57 °FOvercast.9 mph67%30.02 "Hg28 mi
1:00 PM58 °FOvercast.9 mph73%30.01 "Hg25 mi
12:00 PM56 °FOvercast.6 mph77%30.01 "Hg22 mi
11:00 AM53 °FSprinkles. Overcast.6 mph88%30.00 "Hg16 mi
10:00 AM53 °FOvercast.7 mph88%29.99 "Hg16 mi
9:00 AM55 °FLight rain. Overcast.2 mph88%29.96 "Hg16 mi
8:00 AM54 °FLight rain. Overcast.5 mph89%29.96 "Hg9 mi
7:00 AM56 °FLight rain. Overcast.2 mph79%29.93 "Hg31 mi
6:00 AM56 °FLight rain. Overcast.2 mph81%29.91 "Hg31 mi
5:00 AM56 °FOvercast.2 mph78%29.90 "Hg28 mi
4:00 AM56 °FOvercast.2 mph80%29.91 "Hg25 mi
3:00 AM55 °FOvercast.1 mph86%29.91 "Hg25 mi
2:00 AM55 °FOvercast.1 mph86%29.91 "Hg25 mi
1:00 AM55 °FOvercast.1 mph88%29.91 "Hg25 mi
12:00 AM56 °FPassing clouds.1 mph86%29.90 "Hg25 mi
10:00 PM
Fri, May 29
59 °FOvercast.2 mph81%29.88 "Hg25 mi
9:00 PM60 °FOvercast.5 mph74%29.85 "Hg31 mi
8:00 PM63 °FOvercast.5 mph69%29.84 "Hg37 mi
7:00 PM63 °FPartly sunny.5 mph70%29.82 "Hg31 mi
6:00 PM63 °FPartly sunny.7 mph73%29.81 "Hg31 mi
Weather by CustomWeather, © 2015

See weather overviewHow to use our weather pages